WX3I Weather Reports


Display with metric or nautical units.
time (UTC)temp
F
wind
direction
speed
MPH
gust
MPH
rain 1hr
in
rain 24hr
in
rain mn
in
humidity
%
barometer
mb
20260510104004 51 339 0.0 1.0 0.00 0.41 0.00 99 1013.8
20260510103505 51 192 0.0 0.0 0.00 0.41 0.00 99 1013.7
20260510102004 51 192 0.0 0.0 0.00 0.41 0.00 99 1013.4
20260510101504 51 192 0.0 0.0 0.00 0.41 0.00 99 1013.4
20260510101004 51 192 0.0 1.0 0.00 0.41 0.00 99 1013.3
20260510100504 51 194 0.0 1.0 0.00 0.41 0.00 99 1013.2
20260510100004 51 319 0.0 0.0 0.00 0.41 0.00 99 1013.4
20260510095504 51 301 0.0 1.0 0.00 0.41 0.00 99 1013.5
20260510095004 51 45 0.0 1.0 0.00 0.41 0.00 99 1013.3
20260510093505 51 206 0.0 2.0 0.00 0.41 0.00 99 1013.3
20260510093004 50 302 0.0 1.0 0.00 0.41 0.00 99 1013.3
20260510091504 50 102 0.0 1.0 0.00 0.41 0.00 99 1012.9
20260510091004 50 196 0.0 1.0 0.00 0.41 0.00 99 1012.9
20260510090504 50 49 0.0 2.0 0.00 0.41 0.00 98 1013.0
20260510090004 50 51 0.0 0.0 0.00 0.41 0.00 98 1013.1
20260510085504 50 61 1.0 2.0 0.00 0.41 0.00 98 1013.2
20260510085004 50 30 0.0 2.0 0.00 0.41 0.00 98 1013.3
20260510084504 50 31 0.0 2.0 0.00 0.41 0.00 98 1013.2
20260510083504 49 43 1.0 3.0 0.00 0.41 0.00 98 1013.1
20260510082504 49 23 2.0 3.0 0.00 0.41 0.00 98 1013.5
20260510082004 49 48 2.0 5.0 0.00 0.41 0.00 98 1013.0
20260510081505 49 8 3.0 5.0 0.00 0.41 0.00 98 1013.2
20260510081004 49 35 3.0 6.0 0.00 0.41 0.00 98 1013.2
20260510080504 49 328 1.0 3.0 0.00 0.41 0.00 98 1013.0
20260510080004 49 9 1.0 3.0 0.00 0.41 0.00 98 1012.9
20260510075504 49 41 1.0 2.0 0.00 0.41 0.00 98 1012.6
20260510074504 49 43 2.0 3.0 0.00 0.41 0.00 98 1012.5
20260510074004 49 41 2.0 3.0 0.00 0.41 0.00 98 1012.5
20260510073004 48 42 2.0 3.0 0.00 0.41 0.00 98 1012.6
20260510072504 48 39 2.0 3.0 0.00 0.41 0.00 98 1012.5
20260510072005 48 44 2.0 3.0 0.00 0.41 0.00 98 1012.5
20260510071504 48 51 2.0 3.0 0.00 0.41 0.00 98 1012.6
20260510071004 47 25 2.0 2.0 0.00 0.41 0.00 98 1012.6
20260510070504 47 33 2.0 3.0 0.00 0.41 0.00 98 1012.5
20260510065504 47 18 4.0 6.0 0.00 0.41 0.00 98 1012.8
20260510065004 47 25 3.0 3.0 0.00 0.41 0.00 98 1012.6
20260510064004 49 22 3.0 5.0 0.00 0.41 0.00 98 1012.4
20260510063504 50 19 2.0 3.0 0.00 0.41 0.00 98 1012.3
20260510062504 51 225 0.0 2.0 0.00 0.41 0.00 98 1012.0
20260510061504 51 225 0.0 2.0 0.00 0.41 0.00 98 1012.0
20260510061004 51 225 0.0 2.0 0.00 0.41 0.00 98 1012.0
20260510060005 51 245 0.0 1.0 0.00 0.41 0.00 98 1012.1
20260510055504 51 227 0.0 1.0 0.00 0.41 0.00 98 1012.2
20260510055004 51 237 0.0 2.0 0.00 0.41 0.00 98 1012.3
20260510054504 51 259 1.0 3.0 0.00 0.41 0.00 98 1012.2
20260510054004 51 198 1.0 3.0 0.00 0.41 0.00 98 1012.3
20260510053004 52 215 1.0 2.0 0.00 0.41 0.00 98 1012.4
20260510052004 52 230 0.0 2.0 0.00 0.41 0.00 98 1012.4
20260510051504 52 245 0.0 1.0 0.00 0.41 0.00 98 1012.4
20260510051009 52 220 1.0 2.0 0.00 0.41 0.00 98 1012.4
20260510050004 52 235 0.0 2.0 0.00 0.41 0.00 98 1012.5
20260510045507 52 230 0.0 0.0 0.00 0.41 0.00 98 1012.5
20260510045005 52 230 0.0 2.0 0.00 0.41 0.00 98 1012.6
20260510044004 52 220 0.0 2.0 0.00 0.41 0.00 97 1012.7
20260510043504 52 247 0.0 1.0 0.00 0.41 0.00 97 1012.6
20260510042005 52 204 1.0 3.0 0.00 0.41 0.00 97 1012.7
20260510041004 52 244 0.0 2.0 0.00 0.41 0.00 98 1012.8
20260510040505 51 231 0.0 1.0 0.00 0.41 0.00 97 1012.8
20260510035004 51 62 0.0 1.0 0.00 0.41 0.32 97 1012.9
20260510033504 52 298 0.0 0.0 0.00 0.41 0.32 97 1012.8
20260510033004 52 298 0.0 1.0 0.00 0.41 0.32 97 1012.6
20260510032505 52 69 0.0 1.0 0.00 0.41 0.32 97 1012.6
20260510032004 52 252 0.0 1.0 0.00 0.41 0.32 97 1012.6
20260510031004 52 269 0.0 1.0 0.00 0.41 0.32 97 1012.4
20260510030504 52 245 0.0 1.0 0.00 0.41 0.32 97 1012.3
20260510030004 53 220 0.0 1.0 0.00 0.41 0.32 97 1012.4
20260510025503 52 239 0.0 0.0 0.00 0.41 0.32 97 1012.4
20260510024004 52 201 0.0 0.0 0.00 0.41 0.32 97 1012.4
20260510023504 52 212 0.0 2.0 0.00 0.41 0.32 97 1012.4
20260510022504 53 219 0.0 2.0 0.00 0.41 0.32 97 1012.3
20260510022004 53 228 0.0 2.0 0.00 0.41 0.32 96 1012.3
20260510021504 53 229 0.0 2.0 0.00 0.41 0.32 97 1012.3
20260510020504 53 229 0.0 2.0 0.00 0.41 0.32 96 1012.3
20260510020004 53 243 1.0 3.0 0.00 0.41 0.32 96 1012.3
20260510015504 53 188 0.0 2.0 0.00 0.41 0.32 96 1012.2
20260510014005 53 204 0.0 2.0 0.00 0.41 0.32 96 1012.1
20260510013504 53 217 0.0 2.0 0.00 0.41 0.32 96 1012.2
20260510012004 53 239 0.0 1.0 0.00 0.41 0.32 96 1012.1
20260510011504 53 220 0.0 0.0 0.00 0.41 0.32 96 1012.1
20260510011004 53 220 0.0 1.0 0.00 0.41 0.32 95 1012.1
20260510010504 53 222 0.0 2.0 0.00 0.41 0.32 96 1012.1
20260510010004 53 221 0.0 1.0 0.00 0.41 0.32 95 1011.9
20260510005504 53 228 0.0 1.0 0.00 0.41 0.32 95 1011.9
20260510005004 53 261 0.0 3.0 0.00 0.41 0.32 95 1011.8
20260510004504 53 230 0.0 2.0 0.00 0.41 0.32 95 1011.7
20260510004004 53 123 0.0 1.0 0.00 0.41 0.32 95 1011.8
20260510003504 53 215 0.0 1.0 0.00 0.41 0.32 95 1011.8
20260510003004 53 241 0.0 0.0 0.00 0.41 0.32 95 1011.8
20260510002504 54 241 0.0 0.0 0.00 0.41 0.32 95 1011.8
20260510002005 54 241 0.0 1.0 0.00 0.41 0.32 95 1011.8
20260510001504 54 233 0.0 0.0 0.00 0.41 0.32 95 1011.7
20260510001004 54 233 0.0 1.0 0.00 0.41 0.32 94 1011.7
20260510000504 54 40 0.0 2.0 0.00 0.41 0.32 94 1011.6
20260510000004 55 220 0.0 1.0 0.00 0.41 0.32 94 1011.7
20260509235505 55 229 0.0 2.0 0.00 0.41 0.32 94 1011.6
20260509235004 55 211 0.0 2.0 0.00 0.41 0.32 94 1011.6
20260509234504 55 214 1.0 2.0 0.00 0.41 0.32 94 1011.7
20260509234004 55 231 0.0 1.0 0.00 0.41 0.32 93 1011.8
20260509233505 55 232 0.0 1.0 0.00 0.41 0.32 93 1011.8
20260509233004 55 233 0.0 0.0 0.00 0.41 0.32 92 1011.8
20260509232504 55 233 0.0 0.0 0.00 0.41 0.32 92 1011.8
20260509231504 55 234 0.0 2.0 0.00 0.41 0.32 91 1011.7
20260509230504 55 201 1.0 3.0 0.00 0.41 0.32 91 1011.7
20260509230004 55 197 0.0 5.0 0.03 0.41 0.32 90 1011.6
20260509225504 56 175 1.0 5.0 0.03 0.41 0.32 90 1011.7
20260509225004 56 204 3.0 6.0 0.03 0.41 0.32 91 1011.7
20260509224504 56 203 2.0 6.0 0.03 0.41 0.32 92 1011.7
20260509224005 56 189 1.0 3.0 0.03 0.41 0.32 93 1011.7
20260509223505 56 208 2.0 6.0 0.03 0.41 0.32 93 1011.6
20260509223005 56 218 2.0 6.0 0.03 0.41 0.32 93 1011.8
20260509222504 56 203 2.0 5.0 0.01 0.41 0.32 93 1011.8
20260509222004 56 207 3.0 8.0 0.01 0.41 0.32 92 1011.7
20260509221504 56 185 2.0 7.0 0.01 0.41 0.32 93 1011.6
20260509221004 56 220 3.0 7.0 0.01 0.41 0.32 92 1011.5
20260509220504 56 210 1.0 7.0 0.01 0.41 0.32 92 1011.6
20260509215504 56 194 3.0 6.0 0.00 0.38 0.30 92 1011.6
20260509215004 56 176 2.0 5.0 0.00 0.38 0.30 92 1011.6
20260509214504 57 179 2.0 5.0 0.00 0.38 0.30 90 1011.7
20260509214004 56 172 0.0 2.0 0.00 0.38 0.30 90 1011.7
20260509213505 56 212 1.0 3.0 0.01 0.38 0.30 90 1011.7
20260509213004 56 195 0.0 1.0 0.01 0.38 0.30 90 1011.7
20260509212504 56 234 0.0 0.0 0.05 0.38 0.31 89 1011.8
20260509212005 56 234 0.0 0.0 0.05 0.38 0.31 90 1011.9
20260509211004 56 32 1.0 2.0 0.07 0.38 0.31 91 1011.8
20260509210505 56 26 0.0 2.0 0.08 0.38 0.31 92 1011.7
20260509210004 56 53 1.0 3.0 0.08 0.38 0.32 93 1011.7
20260509205004 55 32 1.0 3.0 0.09 0.38 0.32 95 1011.6
20260509204504 55 0 1.0 3.0 0.09 0.38 0.32 95 1011.9
20260509204004 55 32 2.0 5.0 0.09 0.38 0.32 95 1011.8
20260509203505 55 60 0.0 5.0 0.08 0.37 0.31 95 1011.7
20260509203004 55 348 1.0 5.0 0.09 0.37 0.31 95 1011.6
20260509202504 55 49 1.0 3.0 0.07 0.32 0.26 95 1011.5
20260509202004 54 54 0.0 3.0 0.07 0.32 0.26 95 1011.6
20260509201004 54 62 2.0 6.0 0.06 0.31 0.24 95 1011.7
20260509195504 54 27 1.0 3.0 0.08 0.30 0.24 95 1011.8
20260509195005 54 51 1.0 3.0 0.08 0.29 0.23 95 1012.0
20260509194504 54 49 1.0 3.0 0.07 0.29 0.22 94 1012.1
20260509194004 54 17 0.0 5.0 0.07 0.29 0.22 94 1012.2
20260509193504 54 37 1.0 3.0 0.07 0.28 0.22 94 1012.2
20260509192004 54 35 1.0 3.0 0.03 0.25 0.19 94 1012.5
20260509191504 54 20 2.0 3.0 0.03 0.24 0.18 94 1012.5
20260509190504 55 6 1.0 5.0 0.08 0.24 0.22 94 1012.7
20260509185504 55 9 1.0 3.0 0.01 0.17 0.16 94 1012.8
20260509184504 55 17 1.0 2.0 0.02 0.17 0.15 94 1012.8
20260509184005 55 6 1.0 3.0 0.02 0.17 0.15 93 1012.9
20260509183504 55 2 1.0 3.0 0.02 0.17 0.15 93 1012.9
20260509183004 55 32 1.0 3.0 0.02 0.17 0.15 93 1013.0
20260509182504 55 17 1.0 2.0 0.04 0.16 0.16 93 1013.0
20260509181504 55 8 1.0 3.0 0.04 0.16 0.15 92 1013.2
20260509181004 55 359 0.0 2.0 0.03 0.16 0.15 92 1013.3
20260509180504 55 6 1.0 5.0 0.03 0.15 0.15 92 1013.2
20260509175504 55 36 1.0 3.0 0.03 0.15 0.14 91 1013.3
20260509174504 56 3 1.0 2.0 0.03 0.15 0.14 90 1013.3
20260509174005 56 9 1.0 5.0 0.03 0.14 0.14 90 1013.4
20260509173505 56 342 2.0 3.0 0.03 0.14 0.13 89 1013.2
20260509173004 56 341 0.0 3.0 0.04 0.14 0.13 89 1013.1
20260509172004 56 349 1.0 2.0 0.05 0.13 0.12 89 1012.9
20260509171504 56 325 0.0 2.0 0.06 0.13 0.12 89 1012.9
20260509171004 56 242 0.0 2.0 0.08 0.13 0.12 90 1012.8
20260509170505 56 51 1.0 5.0 0.09 0.12 0.11 87 1012.8
20260509170004 56 305 1.0 3.0 0.10 0.12 0.11 88 1013.0
20260509165504 56 307 0.0 2.0 0.10 0.12 0.11 88 1013.1
20260509165004 56 23 0.0 2.0 0.10 0.12 0.11 87 1013.1
20260509164004 57 343 0.0 1.0 0.10 0.11 0.11 86 1013.1
20260509163505 57 286 0.0 2.0 0.10 0.11 0.10 86 1013.1
20260509163004 57 175 0.0 2.0 0.09 0.09 0.09 85 1013.2
20260509162504 57 159 0.0 1.0 0.07 0.08 0.07 84 1013.3
20260509162004 57 309 0.0 3.0 0.07 0.07 0.07 82 1013.3
20260509161504 58 2 1.0 3.0 0.05 0.05 0.05 80 1013.4
20260509161004 58 118 1.0 8.0 0.04 0.04 0.04 79 1013.6
20260509160504 59 29 1.0 7.0 0.02 0.02 0.02 78 1013.8
20260509160004 59 335 1.0 6.0 0.02 0.02 0.02 77 1013.9
20260509155004 60 352 0.0 3.0 0.01 0.01 0.01 76 1013.7
20260509154504 60 254 2.0 5.0 0.01 0.01 0.01 75 1013.7
20260509154004 60 327 1.0 6.0 0.01 0.01 0.01 74 1013.8
20260509153505 60 281 1.0 6.0 0.00 0.00 0.00 73 1013.9
20260509153004 61 320 1.0 6.0 0.00 0.00 0.00 72 1013.9
20260509152504 61 189 2.0 5.0 0.00 0.00 0.00 71 1013.8
20260509152004 61 214 1.0 8.0 0.00 0.00 0.00 71 1013.8
20260509151004 61 9 2.0 5.0 0.00 0.00 0.00 71 1013.8
20260509150504 61 292 1.0 6.0 0.00 0.00 0.00 71 1013.7
20260509150004 61 215 1.0 5.0 0.00 0.00 0.00 71 1013.6
20260509145504 60 243 1.0 8.0 0.00 0.00 0.00 70 1013.7
20260509145004 60 222 2.0 6.0 0.00 0.00 0.00 70 1013.6
20260509144504 60 196 2.0 5.0 0.00 0.00 0.00 71 1013.6
20260509144004 60 30 2.0 5.0 0.00 0.00 0.00 72 1013.6
20260509143004 60 30 1.0 6.0 0.00 0.00 0.00 71 1013.6
20260509142504 60 277 1.0 6.0 0.00 0.00 0.00 71 1013.4
20260509141005 60 136 2.0 6.0 0.00 0.00 0.00 72 1013.4
20260509140504 59 301 1.0 5.0 0.00 0.00 0.00 73 1013.4
20260509140005 59 197 2.0 7.0 0.00 0.00 0.00 73 1013.3
20260509134504 59 291 2.0 6.0 0.00 0.00 0.00 75 1013.1
20260509134004 58 8 1.0 6.0 0.00 0.00 0.00 76 1013.4
20260509133504 58 209 5.0 7.0 0.00 0.00 0.00 75 1013.0
20260509133004 58 207 4.0 8.0 0.00 0.00 0.00 77 1013.2
20260509132504 58 191 4.0 8.0 0.00 0.00 0.00 76 1013.3
20260509132004 58 197 3.0 7.0 0.00 0.00 0.00 77 1013.2
20260509131504 58 219 3.0 6.0 0.00 0.00 0.00 77 1013.2
20260509130504 58 210 3.0 8.0 0.00 0.00 0.00 78 1013.2
20260509130004 57 202 4.0 10.0 0.00 0.00 0.00 78 1013.2
20260509125504 57 213 2.0 10.0 0.00 0.00 0.00 79 1013.2
20260509125004 57 197 3.0 7.0 0.00 0.00 0.00 79 1013.3
20260509124504 56 207 3.0 7.0 0.00 0.00 0.00 80 1013.4
20260509123504 56 212 2.0 5.0 0.00 0.00 0.00 80 1013.4
20260509122004 55 204 4.0 8.0 0.00 0.00 0.00 80 1013.4
20260509121004 55 207 3.0 8.0 0.00 0.00 0.00 81 1013.3
20260509120505 55 214 2.0 6.0 0.00 0.00 0.00 80 1013.3
20260509120004 55 212 3.0 7.0 0.00 0.00 0.00 80 1013.4
20260509115005 54 203 3.0 6.0 0.00 0.00 0.00 80 1013.2
20260509114504 54 208 3.0 6.0 0.00 0.00 0.00 80 1013.2
20260509113505 54 215 3.0 7.0 0.00 0.00 0.00 79 1013.3
20260509113004 54 222 2.0 3.0 0.00 0.00 0.00 79 1013.3
20260509111504 54 213 2.0 3.0 0.00 0.00 0.00 78 1013.3
20260509111004 54 206 1.0 5.0 0.00 0.00 0.00 78 1013.3
20260509110505 54 212 2.0 5.0 0.00 0.00 0.00 78 1013.2
20260509110004 54 223 2.0 3.0 0.00 0.00 0.00 77 1013.2
20260509105504 54 212 2.0 3.0 0.00 0.00 0.00 77 1013.2